Starlink 30932

operational
NORAD ID: 58523 Int'l Des: 2023-191 Owner: SPXS Country: US Constellation: starlink
LEOCIRCULAR

About Starlink 30932

Description loading...

Live Position

Loading 3D Globe...

Upcoming Passes

Altitude History

Altitude vs Time

uPlot chart will show altitude changes over time

Two-Line Element Set

1 58523U 23191R 25257.53790684 .00000757 00000-0 71061-4 0 9990
2 58523 43.0044 343.1302 0000978 275.8241 84.2490 15.02541083 98899
Epoch: Sep 14, 2025 • Age: 21 hours

Current Status

Altitude 558.1 km
Velocity 7.58 km/s
Sub-Earth Point 9.23°N, 151.88°W
Launch Date Dec 7, 2023
Age 1.7 years
Type internet

Technical Details

Classification Payload
Mass 730.00 kg
Dry Mass 700.00 kg
Total Mass 730.00 kg
Length 0.30 m
Diameter 4.10 m
Span 29.00 m
Shape Box + pan
Manufacturer SPXS
Bus Type Starlink V2M
Phase Status In Orbit
Owner/State SPXS/US

Large Constellations

Loading constellations...